This is the latest recevied weather packets stored in our database for station/object KP4CRN. If no packets are shown the sender has not sent any weather packets the latest 10 day(s).
| Time | Temp. | Humidity | Pressure | Rain* | Wind** | Luminosity | Snow |
|---|---|---|---|---|---|---|---|
| 1777808503 | 27.22° C | 86% | 1018.2 hPa | 0 mm | - | 231 W/m² | - |
| 1777808200 | 27.22° C | 85% | 1018.1 hPa | 0 mm | - | 200 W/m² | - |
| 1777807898 | 27.22° C | 85% | 1018.1 hPa | 0 mm | - | 185 W/m² | - |
| 1777807596 | 26.67° C | 86% | 1018.1 hPa | 0 mm | - | 168 W/m² | - |
| 1777807293 | 26.67° C | 87% | 1018 hPa | 0 mm | - | 154 W/m² | - |
| 1777806989 | 26.11° C | 89% | 1017.8 hPa | 0 mm | - | 140 W/m² | - |
| 1777806685 | 26.11° C | 89% | 1017.9 hPa | 0 mm | - | 128 W/m² | - |
| 1777806381 | 25.56° C | 89% | 1018 hPa | 0 mm | - | 116 W/m² | - |
| 1777806079 | 25.56° C | 90% | 1017.9 hPa | 0 mm | - | 105 W/m² | - |
| 1777805775 | 25° C | 91% | 1017.9 hPa | 0 mm | - | 93 W/m² | - |
| 1777805472 | 25° C | 92% | 1017.9 hPa | 0 mm | - | 83 W/m² | - |
| 1777805170 | 25° C | 92% | 1017.8 hPa | 0 mm | - | 72 W/m² | - |
| 1777804868 | 25° C | 92% | 1017.8 hPa | 0 mm | - | 60 W/m² | - |
| 1777804566 | 24.44° C | 93% | 1017.7 hPa | 0 mm | - | 51 W/m² | - |
| 1777804263 | 24.44° C | 94% | 1017.7 hPa | 0 mm | - | 42 W/m² | - |
| 1777803959 | 23.89° C | 94% | 1017.4 hPa | 0 mm | - | 32 W/m² | - |
| 1777803655 | 23.89° C | 95% | 1017.3 hPa | 0 mm | - | 24 W/m² | - |
| 1777803347 | 23.89° C | 95% | 1017.4 hPa | 0 mm | - | 18 W/m² | - |
| 1777803044 | 23.89° C | 95% | 1017.3 hPa | 0 mm | - | 13 W/m² | - |
| 1777802741 | 23.89° C | 95% | 1017.3 hPa | 0 mm | - | 9 W/m² | - |
| 1777802439 | 23.89° C | 96% | 1017.4 hPa | 0 mm | - | 5 W/m² | - |
| 1777802137 | 23.89° C | 96% | 1017.2 hPa | 0 mm | - | 3 W/m² | - |
| 1777801835 | 23.89° C | 96% | 1017.1 hPa | 0 mm | - | 1 W/m² | - |
| 1777801532 | 23.89° C | 96% | 1017.4 hPa | 0 mm | - | 0 W/m² | - |
| 1777801228 | 23.33° C | 96% | 1017.1 hPa | 0 mm | - | 0 W/m² | - |
* Rain latest hour (hover to see other rain measurements)
** Current wind speed in m/s (hover to see current wind gust speed)